Simultaneous Nadir Overpasses (SNOs) Predictions

Prediction of SNOs between AQUA and METOP-C Satellite Orbit:

Table of predicted SNOs for the next 14.0 days since TLE Epoch: 6/14/2024
Index Date (AQUA) Time (AQUA) Lat,Lon (AQUA) SZA (AQUA ) Date (METOP-C) Time (METOP-C) Lat,Lon (METOP-C) SZA (METOP-C ) Distance(km) Time Diff (sec)
1 06/17/2024 12:19:47 75.40, -6.32 51.93 06/17/2024 12:18:52 75.39, -6.35 51.91 2.14 55
2 06/17/2024 13:09:09 -75.45, 161.20 128.02 06/17/2024 13:09:32 -75.48, 161.25 128.00 2.89 23
3 06/20/2024 03:40:52 -75.41, -56.56 128.11 06/20/2024 03:39:54 -75.40, -56.57 128.11 1.30 58
4 06/20/2024 04:30:16 75.47, 110.92 51.96 06/20/2024 04:30:32 75.47, 110.99 51.96 2.13 16
5 06/22/2024 19:01:57 75.39,-106.73 51.89 06/22/2024 19:00:53 75.42,-106.73 51.93 3.57 64
6 06/22/2024 19:51:20 -75.48, 60.67 128.02 06/22/2024 19:51:34 -75.48, 60.77 128.02 2.81 14
7 06/25/2024 10:23:00 -75.41,-156.99 128.04 06/25/2024 10:21:55 -75.43,-156.96 128.01 3.04 65
8 06/25/2024 11:12:24 75.48, 10.45 52.05 06/25/2024 11:12:33 75.49, 10.57 52.06 3.46 9
9 06/25/2024 12:01:58 -76.10, 176.23 127.31 06/25/2024 12:03:02 -76.11, 179.92 127.33 98.53 64
10 06/28/2024 01:44:02 75.42, 152.76 52.09 06/28/2024 01:42:53 75.43, 152.80 52.10 1.42 69
11 06/28/2024 02:33:24 -75.45, -39.67 127.88 06/28/2024 02:33:35 -75.45, -39.81 127.88 3.96 11



Historial Predications of SNOs between AQUA and METOP-C
